Regional Weather Roundup
Issued by NWS Spokane, WA

Home | Current Version | Previous Version | Text Only | Print | Product List | Glossary On
Versions: 1 2 3 4 5 6 7 8 9 10 11 12 13 14 15 16 17 18 19 20 21 22 23 24 25 26 27 28 29 30 31 32 33 34 35 36 37 38 39 40 41 42 43 44 45 46 47 48 49 50
433
NZUS01 KOTX 181825
RWROTX

Eastern Washington/Northern Idaho Roundup
National Weather Service, Spokane WA
1000 AM PST WED JAN 18 2017

Note: "fair" indicated few or no clouds below 12,000 feet with no
significant weather and/or obstructions to visibility.

...Northeast Washington and Northern Idaho Panhandle...

CITY           SKY/WX    TMP DP  RH WIND       PRES   REMARKS
Spokane Intl   LGT RAIN  37  33  85 SE15G23   29.63S
Spokane Downto CLOUDY    39  37  92 VRB5      29.66S
Coeur d Alene  LGT RAIN  37  36  93 CALM      29.67F
Deer Park      MIX PCPN  33  31  92 N3        29.66S
Sandpoint      MIX PCPN  32  32 100 CALM      29.69S
Bonners Ferry  LGT SNOW  30  28  93 CALM      29.68R

...Southeast Washington and southern Idaho Panhandle...

CITY           SKY/WX    TMP DP  RH WIND       PRES   REMARKS
Walla Walla    FAIR      48  32  53 SE17G29   29.58S
Pullman/Moscow PTSUNNY   35  29  78 SE22      29.72R WCI  23
Lewiston       FAIR      40  30  67 S8        29.76F
Lowell           N/A     32  29  88 NW5       29.85R WCI  27
Grangeville    CLOUDY    37  32  81 S25G35    29.76R

...Columbia Basin...

CITY           SKY/WX    TMP DP  RH WIND       PRES   REMARKS
Ephrata        CLOUDY    30  24  78 NW3       29.61F
Moses Lake     CLOUDY    28  26  92 W3        29.63S FOG
Pasco          FAIR      26  24  92 CALM      29.68F FOG
Richland       FAIR      28  26  89 MISG      29.67F FOG
Hermiston      FAIR      24  21  88 CALM      29.61F FOG
Pendleton      FAIR      44  33  65 SE28G33   29.58F

...East Slopes Cascades...

CITY           SKY/WX    TMP DP  RH WIND       PRES   REMARKS
The Dalles     FAIR      26  22  84 CALM      29.65F FOG
Yakima         FAIR      29  24  82 CALM      29.62F HAZE
Ellensburg     FRZ RAIN  27  23  85 VRB3      29.56F FOG
Stampede Pass  SNOW      22  22 100 VRB7      29.44  VSB 1/2 WCI  13
Wenatchee      LGT SNOW  21  19  92 W7        29.64F FOG     WCI  12
Omak           LGT SNOW  25  21  85 S5        29.64S FOG     WCI  19
Sunnyside      FAIR      21  18  89 CALM      29.64S FOG

...Southern British Columbia...

CITY           SKY/WX    TMP DP  RH WIND       PRES   REMARKS
Penticton      FLURRIES  32  28  86 SE14G25   29.56S WCI  22
Castlegar      LGT SNOW  30  30 100 CALM      29.66S
Cranbrook      LGT SNOW  32  30  93 SW3       29.63
Osoyoos          N/A     27  25  93 S10         N/A  WCI  17
Creston          N/A     32  30  93 SE5         N/A  WCI  27

...Western Montana...

CITY           SKY/WX    TMP DP  RH WIND       PRES   REMARKS
Kalispell      CLOUDY    26  22  84 CALM      29.72S FOG
Missoula       CLOUDY    23  19  85 W3        29.78F FOG

...Neighboring Cities...

CITY           SKY/WX    TMP DP  RH WIND       PRES   REMARKS
Seattle        LGT RAIN  47  46  97 SE12      29.36S
Portland       LGT RAIN  35  35 100 SE16      29.48R FOG     WCI  25
Boise          CLOUDY    21  16  81 N5        30.02R HAZE    WCI  15
Great Falls    CLOUDY    44  25  47 S17       29.59R
Calgary        PTSUNNY   37  28  70 S10       29.29R



USA.gov is the U.S. government's official web portal to all federal, state and local government web resources and services.